This is the latest recevied weather packets stored in our database for station/object K9ABJ. If no packets are shown the sender has not sent any weather packets the latest 10 day(s).
| Time | Temp. | Humidity | Pressure | Rain* | Wind** | Luminosity | Snow |
|---|---|---|---|---|---|---|---|
| 1787752064 | 20.56° C | 80% | 1015.7 hPa | 0 mm | - | 248 W/m² | - |
| 1787751758 | 20.56° C | 81% | 1015.7 hPa | 0 mm | - | 137 W/m² | - |
| 1787751454 | 20.56° C | 80% | 1015.7 hPa | 0 mm | - | 91 W/m² | - |
| 1787751149 | 20.56° C | 79% | 1015.6 hPa | 0 mm | - | 141 W/m² | - |
| 1787750844 | 20.56° C | 80% | 1015.8 hPa | 0 mm | - | 144 W/m² | - |
| 1787750540 | 20.56° C | 79% | 1015.6 hPa | 0 mm | - | 135 W/m² | - |
| 1787750235 | 20.56° C | 79% | 1015.7 hPa | 0 mm | - | 213 W/m² | - |
| 1787749930 | 21.11° C | 79% | 1015.8 hPa | 0 mm | - | 242 W/m² | - |
| 1787749626 | 20° C | 81% | 1016 hPa | 0 mm | - | 192 W/m² | - |
| 1787749322 | 20.56° C | 81% | 1015.8 hPa | 0 mm | - | 185 W/m² | - |
| 1787749022 | 18.89° C | 83% | 1015.9 hPa | 0 mm | - | 201 W/m² | - |
| 1787748717 | 19.44° C | 82% | 1015.8 hPa | 0 mm | - | 170 W/m² | - |
| 1787748411 | 18.89° C | 83% | 1015.8 hPa | 0 mm | - | 158 W/m² | - |
| 1787748108 | 18.33° C | 84% | 1015.9 hPa | 0 mm | - | 84 W/m² | - |
| 1787747808 | 17.78° C | 85% | 1016 hPa | 0 mm | - | 132 W/m² | - |
| 1787747503 | 18.33° C | 85% | 1016 hPa | 0 mm | - | 114 W/m² | - |
| 1787747202 | 17.78° C | 86% | 1016 hPa | 0 mm | - | 122 W/m² | - |
| 1787746900 | 17.78° C | 86% | 1016.1 hPa | 0 mm | - | 108 W/m² | - |
| 1787746599 | 17.78° C | 87% | 1016.2 hPa | 0 mm | - | 88 W/m² | - |
| 1787746298 | 17.78° C | 86% | 1016.3 hPa | 0 mm | - | 79 W/m² | - |
| 1787745998 | 17.22° C | 87% | 1016.4 hPa | 0 mm | - | 67 W/m² | - |
| 1787745698 | 16.67° C | 91% | 1016.3 hPa | 0 mm | - | 59 W/m² | - |
| 1787745396 | 16.11° C | 92% | 1016.5 hPa | 0 mm | - | 55 W/m² | - |
| 1787745096 | 15.56° C | 93% | 1016.3 hPa | 0 mm | - | 48 W/m² | - |
| 1787744792 | 15° C | 94% | 1016.2 hPa | 0 mm | - | 35 W/m² | - |
* Rain latest hour (hover to see other rain measurements)
** Current wind speed in m/s (hover to see current wind gust speed)